Year,Month,Day,Hour,Minute,Value (Times are PST for temperature in C)
2006,07,24,00,00,21.60
2006,07,24,00,01,21.60
2006,07,24,00,02,21.60
2006,07,24,00,03,21.60
2006,07,24,00,04,21.60
2006,07,24,00,05,21.60
2006,07,24,00,06,21.50
2006,07,24,00,07,21.40
2006,07,24,00,08,21.30
2006,07,24,00,09,21.30
2006,07,24,00,10,21.20
2006,07,24,00,11,21.10
2006,07,24,00,12,21.00
2006,07,24,00,13,21.00
2006,07,24,00,14,21.00
2006,07,24,00,15,20.90
2006,07,24,00,16,20.80
2006,07,24,00,17,20.80
2006,07,24,00,18,20.80
2006,07,24,00,19,20.70
2006,07,24,00,20,20.70
2006,07,24,00,21,20.60
2006,07,24,00,22,20.60
2006,07,24,00,23,20.60
2006,07,24,00,24,20.50
2006,07,24,00,25,20.50
2006,07,24,00,26,20.50
2006,07,24,00,27,20.40
2006,07,24,00,28,20.30
2006,07,24,00,29,20.30
2006,07,24,00,30,20.20
2006,07,24,00,31,20.10
2006,07,24,00,32,19.90
2006,07,24,00,33,19.80
2006,07,24,00,34,19.70
2006,07,24,00,35,19.70
2006,07,24,00,36,19.60
2006,07,24,00,37,19.60
2006,07,24,00,38,19.50
2006,07,24,00,39,19.50
2006,07,24,00,40,19.40
2006,07,24,00,41,19.30
2006,07,24,00,42,19.30
2006,07,24,00,43,19.10
2006,07,24,00,44,19.00
2006,07,24,00,45,18.90
2006,07,24,00,46,18.80
2006,07,24,00,47,18.70
2006,07,24,00,48,18.60
2006,07,24,00,49,18.60
2006,07,24,00,50,18.50
2006,07,24,00,51,18.50
2006,07,24,00,52,18.50
2006,07,24,00,53,18.50
2006,07,24,00,54,18.50
2006,07,24,00,55,18.40
2006,07,24,00,56,18.40
2006,07,24,00,57,18.40
2006,07,24,00,58,18.40
2006,07,24,00,59,18.40
2006,07,24,01,00,18.40
2006,07,24,01,01,18.40
2006,07,24,01,02,18.40
2006,07,24,01,03,18.40
2006,07,24,01,04,18.40
2006,07,24,01,05,18.40
2006,07,24,01,06,18.40
2006,07,24,01,07,18.40
2006,07,24,01,08,18.40
2006,07,24,01,09,18.40
2006,07,24,01,10,18.40
2006,07,24,01,11,18.40
2006,07,24,01,12,18.30
2006,07,24,01,13,18.30
2006,07,24,01,14,18.30
2006,07,24,01,15,18.30
2006,07,24,01,16,18.30
2006,07,24,01,17,18.30
2006,07,24,01,18,18.30
2006,07,24,01,19,18.30
2006,07,24,01,20,18.30
2006,07,24,01,21,18.30
2006,07,24,01,22,18.30
2006,07,24,01,23,18.30
2006,07,24,01,24,18.30
2006,07,24,01,25,18.30
2006,07,24,01,26,18.30
2006,07,24,01,27,18.30
2006,07,24,01,28,18.30
2006,07,24,01,29,18.30
2006,07,24,01,30,18.30
2006,07,24,01,31,18.30
2006,07,24,01,32,18.30
2006,07,24,01,33,18.30
2006,07,24,01,34,18.30
2006,07,24,01,35,18.40
2006,07,24,01,36,18.40
2006,07,24,01,37,18.40
2006,07,24,01,38,18.40
2006,07,24,01,39,18.40
2006,07,24,01,40,18.50
2006,07,24,01,41,18.50
2006,07,24,01,42,18.50
2006,07,24,01,43,18.60
2006,07,24,01,44,18.60
2006,07,24,01,45,18.60
2006,07,24,01,46,18.60
2006,07,24,01,47,18.60
2006,07,24,01,48,18.70
2006,07,24,01,49,18.70
2006,07,24,01,50,18.70
2006,07,24,01,51,18.70
2006,07,24,01,52,18.70
2006,07,24,01,53,18.70
2006,07,24,01,54,18.70
2006,07,24,01,55,18.80
2006,07,24,01,56,18.80
2006,07,24,01,57,18.80
2006,07,24,01,58,18.80
2006,07,24,01,59,18.80
2006,07,24,02,00,18.80
2006,07,24,02,01,18.90
2006,07,24,02,02,18.90
2006,07,24,02,03,18.90
2006,07,24,02,04,18.90
2006,07,24,02,05,18.90
2006,07,24,02,06,18.90
2006,07,24,02,07,18.90
2006,07,24,02,08,18.90
2006,07,24,02,09,18.90
2006,07,24,02,10,18.90
2006,07,24,02,11,18.90
2006,07,24,02,12,18.90
2006,07,24,02,13,18.90
2006,07,24,02,14,18.90
2006,07,24,02,15,18.90
2006,07,24,02,16,18.90
2006,07,24,02,17,18.90
2006,07,24,02,18,18.90
2006,07,24,02,19,18.90
2006,07,24,02,20,18.90
2006,07,24,02,21,19.00
2006,07,24,02,22,19.10
2006,07,24,02,23,19.10
2006,07,24,02,24,19.10
2006,07,24,02,25,19.10
2006,07,24,02,26,19.10
2006,07,24,02,27,19.10
2006,07,24,02,28,19.10
2006,07,24,02,29,19.10
2006,07,24,02,30,19.10
2006,07,24,02,31,19.10
2006,07,24,02,32,19.10
2006,07,24,02,33,19.10
2006,07,24,02,34,19.10
2006,07,24,02,35,19.10
2006,07,24,02,36,19.10
2006,07,24,02,37,19.10
2006,07,24,02,38,19.10
2006,07,24,02,39,19.10
2006,07,24,02,40,19.10
2006,07,24,02,41,19.10
2006,07,24,02,42,19.10
2006,07,24,02,43,19.10
2006,07,24,02,44,19.10
2006,07,24,02,45,19.10
2006,07,24,02,46,19.10
2006,07,24,02,47,19.10
2006,07,24,02,48,19.10
2006,07,24,02,49,19.10
2006,07,24,02,50,19.10
2006,07,24,02,51,19.10
2006,07,24,02,52,19.10
2006,07,24,02,53,19.10
2006,07,24,02,54,19.10
2006,07,24,02,55,19.10
2006,07,24,02,56,19.10
2006,07,24,02,57,19.10
2006,07,24,02,58,19.10
2006,07,24,02,59,19.00
2006,07,24,03,00,18.90
2006,07,24,03,01,18.90
2006,07,24,03,02,18.90
2006,07,24,03,03,18.90
2006,07,24,03,04,18.80
2006,07,24,03,05,18.70
2006,07,24,03,06,18.70
2006,07,24,03,07,18.70
2006,07,24,03,08,18.60
2006,07,24,03,09,18.60
2006,07,24,03,10,18.60
2006,07,24,03,11,18.60
2006,07,24,03,12,18.50
2006,07,24,03,13,18.50
2006,07,24,03,14,18.50
2006,07,24,03,15,18.50
2006,07,24,03,16,18.50
2006,07,24,03,17,18.50
2006,07,24,03,18,18.50
2006,07,24,03,19,18.50
2006,07,24,03,20,18.50
2006,07,24,03,21,18.50
2006,07,24,03,22,18.50
2006,07,24,03,23,18.40
2006,07,24,03,24,18.40
2006,07,24,03,25,18.40
2006,07,24,03,26,18.40
2006,07,24,03,27,18.40
2006,07,24,03,28,18.40
2006,07,24,03,29,18.40
2006,07,24,03,30,18.40
2006,07,24,03,31,18.50
2006,07,24,03,32,18.50
2006,07,24,03,33,18.50
2006,07,24,03,34,18.50
2006,07,24,03,35,18.50
2006,07,24,03,36,18.50
2006,07,24,03,37,18.50
2006,07,24,03,38,18.50
2006,07,24,03,39,18.40
2006,07,24,03,40,18.40
2006,07,24,03,41,18.40
2006,07,24,03,42,18.50
2006,07,24,03,43,18.50
2006,07,24,03,44,18.50
2006,07,24,03,45,18.50
2006,07,24,03,46,18.40
2006,07,24,03,47,18.40
2006,07,24,03,48,18.40
2006,07,24,03,49,18.40
2006,07,24,03,50,18.40
2006,07,24,03,51,18.30
2006,07,24,03,52,18.30
2006,07,24,03,53,18.30
2006,07,24,03,54,18.30
2006,07,24,03,55,18.20
2006,07,24,03,56,18.20
2006,07,24,03,57,18.20
2006,07,24,03,58,18.20
2006,07,24,03,59,18.20
2006,07,24,04,00,18.20
2006,07,24,04,01,18.10
2006,07,24,04,02,18.10
2006,07,24,04,03,18.10
2006,07,24,04,04,18.10
2006,07,24,04,05,18.00
2006,07,24,04,06,17.90
2006,07,24,04,07,17.90
2006,07,24,04,08,17.90
2006,07,24,04,09,17.90
2006,07,24,04,10,17.90
2006,07,24,04,11,17.90
2006,07,24,04,12,17.90
2006,07,24,04,13,17.90
2006,07,24,04,14,17.90
2006,07,24,04,15,17.90
2006,07,24,04,16,17.90
2006,07,24,04,17,17.80
2006,07,24,04,18,17.80
2006,07,24,04,19,17.70
2006,07,24,04,20,17.70
2006,07,24,04,21,17.70
2006,07,24,04,22,17.60
2006,07,24,04,23,17.50
2006,07,24,04,24,17.50
2006,07,24,04,25,17.50
2006,07,24,04,26,17.50
2006,07,24,04,27,17.40
2006,07,24,04,28,17.40
2006,07,24,04,29,17.30
2006,07,24,04,30,17.30
2006,07,24,04,31,17.20
2006,07,24,04,32,17.10
2006,07,24,04,33,17.00
2006,07,24,04,34,16.90
2006,07,24,04,35,16.80
2006,07,24,04,36,16.70
2006,07,24,04,37,16.70
2006,07,24,04,38,16.60
2006,07,24,04,39,16.50
2006,07,24,04,40,16.40
2006,07,24,04,41,16.40
2006,07,24,04,42,16.30
2006,07,24,04,43,16.20
2006,07,24,04,44,16.10
2006,07,24,04,45,16.10
2006,07,24,04,46,16.10
2006,07,24,04,47,16.00
2006,07,24,04,48,15.90
2006,07,24,04,49,15.90
2006,07,24,04,50,15.90
2006,07,24,04,51,15.80
2006,07,24,04,52,15.80
2006,07,24,04,53,15.80
2006,07,24,04,54,15.80
2006,07,24,04,55,15.80
2006,07,24,04,56,15.80
2006,07,24,04,57,15.80
2006,07,24,04,58,15.90
2006,07,24,04,59,15.90
2006,07,24,05,00,15.90
2006,07,24,05,01,16.00
2006,07,24,05,02,16.10
2006,07,24,05,03,16.10
2006,07,24,05,04,16.10
2006,07,24,05,05,16.10
2006,07,24,05,06,16.10
2006,07,24,05,07,16.10
2006,07,24,05,08,16.10
2006,07,24,05,09,16.10
2006,07,24,05,10,16.10
2006,07,24,05,11,16.10
2006,07,24,05,12,16.10
2006,07,24,05,13,16.10
2006,07,24,05,14,16.10
2006,07,24,05,15,16.10
2006,07,24,05,16,16.10
2006,07,24,05,17,16.10
2006,07,24,05,18,16.10
2006,07,24,05,19,16.10
2006,07,24,05,20,16.10
2006,07,24,05,21,16.10
2006,07,24,05,22,16.10
2006,07,24,05,23,16.10
2006,07,24,05,24,16.10
2006,07,24,05,25,16.10
2006,07,24,05,26,16.10
2006,07,24,05,27,16.10
2006,07,24,05,28,16.10
2006,07,24,05,29,16.10
2006,07,24,05,30,16.10
2006,07,24,05,31,16.10
2006,07,24,05,32,16.10
2006,07,24,05,33,16.10
2006,07,24,05,34,16.10
2006,07,24,05,35,16.10
2006,07,24,05,36,16.20
2006,07,24,05,37,16.20
2006,07,24,05,38,16.20
2006,07,24,05,39,16.20
2006,07,24,05,40,16.20
2006,07,24,05,41,16.20
2006,07,24,05,42,16.20
2006,07,24,05,43,16.20
2006,07,24,05,44,16.20
2006,07,24,05,45,16.30
2006,07,24,05,46,16.30
2006,07,24,05,47,16.30
2006,07,24,05,48,16.40
2006,07,24,05,49,16.40
2006,07,24,05,50,16.40
2006,07,24,05,51,16.40
2006,07,24,05,52,16.40
2006,07,24,05,53,16.40
2006,07,24,05,54,16.50
2006,07,24,05,55,16.60
2006,07,24,05,56,16.60
2006,07,24,05,57,16.70
2006,07,24,05,58,16.70
2006,07,24,05,59,16.70
2006,07,24,06,00,16.80
2006,07,24,06,01,16.80
2006,07,24,06,02,16.80
2006,07,24,06,03,16.90
2006,07,24,06,04,16.90
2006,07,24,06,05,17.00
2006,07,24,06,06,17.00
2006,07,24,06,07,17.00
2006,07,24,06,08,17.10
2006,07,24,06,09,17.10
2006,07,24,06,10,17.20
2006,07,24,06,11,17.20
2006,07,24,06,12,17.30
2006,07,24,06,13,17.30
2006,07,24,06,14,17.30
2006,07,24,06,15,17.30
2006,07,24,06,16,17.40
2006,07,24,06,17,17.40
2006,07,24,06,18,17.40
2006,07,24,06,19,17.50
2006,07,24,06,20,17.50
2006,07,24,06,21,17.50
2006,07,24,06,22,17.50
2006,07,24,06,23,17.60
2006,07,24,06,24,17.60
2006,07,24,06,25,17.70
2006,07,24,06,26,17.70
2006,07,24,06,27,17.80
2006,07,24,06,28,17.80
2006,07,24,06,29,17.90
2006,07,24,06,30,18.00
2006,07,24,06,31,18.10
2006,07,24,06,32,18.20
2006,07,24,06,33,18.30
2006,07,24,06,34,18.30
2006,07,24,06,35,18.40
2006,07,24,06,36,18.40
2006,07,24,06,37,18.50
2006,07,24,06,38,18.50
2006,07,24,06,39,18.60
2006,07,24,06,40,18.70
2006,07,24,06,41,18.70
2006,07,24,06,42,18.70
2006,07,24,06,43,18.80
2006,07,24,06,44,18.90
2006,07,24,06,45,18.90
2006,07,24,06,46,18.90
2006,07,24,06,47,18.90
2006,07,24,06,48,19.10
2006,07,24,06,49,19.10
2006,07,24,06,50,19.20
2006,07,24,06,51,19.20
2006,07,24,06,52,19.30
2006,07,24,06,53,19.40
2006,07,24,06,54,19.40
2006,07,24,06,55,19.50
2006,07,24,06,56,19.50
2006,07,24,06,57,19.50
2006,07,24,06,58,19.60
2006,07,24,06,59,19.60
2006,07,24,07,00,19.70
2006,07,24,07,01,19.70
2006,07,24,07,02,19.70
2006,07,24,07,03,19.90
2006,07,24,07,04,19.90
2006,07,24,07,05,20.00
2006,07,24,07,06,20.10
2006,07,24,07,07,20.20
2006,07,24,07,08,20.20
2006,07,24,07,09,20.30
2006,07,24,07,10,20.40
2006,07,24,07,11,20.50
2006,07,24,07,12,20.50
2006,07,24,07,13,20.60
2006,07,24,07,14,20.70
2006,07,24,07,15,20.70
2006,07,24,07,16,20.80
2006,07,24,07,17,20.90
2006,07,24,07,18,20.90
2006,07,24,07,19,21.00
2006,07,24,07,20,21.00
2006,07,24,07,21,21.20
2006,07,24,07,22,21.20
2006,07,24,07,23,21.30
2006,07,24,07,24,21.30
2006,07,24,07,25,21.30
2006,07,24,07,26,21.30
2006,07,24,07,27,21.30
2006,07,24,07,28,21.40
2006,07,24,07,29,21.50
2006,07,24,07,30,21.60
2006,07,24,07,31,21.60
2006,07,24,07,32,21.70
2006,07,24,07,33,21.80
2006,07,24,07,34,21.80
2006,07,24,07,35,21.70
2006,07,24,07,36,21.70
2006,07,24,07,37,21.70
2006,07,24,07,38,21.80
2006,07,24,07,39,21.80
2006,07,24,07,40,21.80
2006,07,24,07,41,21.80
2006,07,24,07,42,21.80
2006,07,24,07,43,21.80
2006,07,24,07,44,21.80
2006,07,24,07,45,21.80
2006,07,24,07,46,21.80
2006,07,24,07,47,21.80
2006,07,24,07,48,21.80
2006,07,24,07,49,21.80
2006,07,24,07,50,21.80
2006,07,24,07,51,21.80
2006,07,24,07,52,21.90
2006,07,24,07,53,22.00
2006,07,24,07,54,22.00
2006,07,24,07,55,22.10
2006,07,24,07,56,22.10
2006,07,24,07,57,22.10
2006,07,24,07,58,22.10
2006,07,24,07,59,22.10
2006,07,24,08,00,22.20
2006,07,24,08,01,22.20
2006,07,24,08,02,22.20
2006,07,24,08,03,22.20
2006,07,24,08,04,22.40
2006,07,24,08,05,22.50
2006,07,24,08,06,22.50
2006,07,24,08,07,22.60
2006,07,24,08,08,22.60
2006,07,24,08,09,22.70
2006,07,24,08,10,22.80
2006,07,24,08,11,22.90
2006,07,24,08,12,22.90
2006,07,24,08,13,22.90
2006,07,24,08,14,22.80
2006,07,24,08,15,22.80
2006,07,24,08,16,22.70
2006,07,24,08,17,22.70
2006,07,24,08,18,22.70
2006,07,24,08,19,22.70
2006,07,24,08,20,22.60
2006,07,24,08,21,22.60
2006,07,24,08,22,22.60
2006,07,24,08,23,22.50
2006,07,24,08,24,22.30
2006,07,24,08,25,22.20
2006,07,24,08,26,22.10
2006,07,24,08,27,22.00
2006,07,24,08,28,22.00
2006,07,24,08,29,21.90
2006,07,24,08,30,21.90
2006,07,24,08,31,21.90
2006,07,24,08,32,21.90
2006,07,24,08,33,21.80
2006,07,24,08,34,21.70
2006,07,24,08,35,21.60
2006,07,24,08,36,21.60
2006,07,24,08,37,21.50
2006,07,24,08,38,21.40
2006,07,24,08,39,21.40
2006,07,24,08,40,21.40
2006,07,24,08,41,21.40
2006,07,24,08,42,21.40
2006,07,24,08,43,21.40
2006,07,24,08,44,21.50
2006,07,24,08,45,21.60
2006,07,24,08,46,21.60
2006,07,24,08,47,21.50
2006,07,24,08,48,21.40
2006,07,24,08,49,21.40
2006,07,24,08,50,21.40
2006,07,24,08,51,21.30
2006,07,24,08,52,21.30
2006,07,24,08,53,21.20
2006,07,24,08,54,21.20
2006,07,24,08,55,21.20
2006,07,24,08,56,21.20
2006,07,24,08,57,21.20
2006,07,24,08,58,21.20
2006,07,24,08,59,21.20
2006,07,24,09,00,21.30
2006,07,24,09,01,21.30
2006,07,24,09,02,21.40
2006,07,24,09,03,21.40
2006,07,24,09,04,21.50
2006,07,24,09,05,21.60
2006,07,24,09,06,21.70
2006,07,24,09,07,21.80
2006,07,24,09,08,22.00
2006,07,24,09,09,22.00
2006,07,24,09,10,22.20
2006,07,24,09,11,22.30
2006,07,24,09,12,22.40
2006,07,24,09,13,22.60
2006,07,24,09,14,22.60
2006,07,24,09,15,22.70
2006,07,24,09,16,22.60
2006,07,24,09,17,22.60
2006,07,24,09,18,22.50
2006,07,24,09,19,22.60
2006,07,24,09,20,22.60
2006,07,24,09,21,22.60
2006,07,24,09,22,22.60
2006,07,24,09,23,22.70
2006,07,24,09,24,22.70
2006,07,24,09,25,22.70
2006,07,24,09,26,22.70
2006,07,24,09,27,22.70
2006,07,24,09,28,22.80
2006,07,24,09,29,22.80
2006,07,24,09,30,22.90
2006,07,24,09,31,22.90
2006,07,24,09,32,23.00
2006,07,24,09,33,23.20
2006,07,24,09,34,23.30
2006,07,24,09,35,23.30
2006,07,24,09,36,23.30
2006,07,24,09,37,23.30
2006,07,24,09,38,23.30
2006,07,24,09,39,23.30
2006,07,24,09,40,23.30
2006,07,24,09,41,23.30
2006,07,24,09,42,23.20
2006,07,24,09,43,23.20
2006,07,24,09,44,23.30
2006,07,24,09,45,23.20
2006,07,24,09,46,23.30
2006,07,24,09,47,23.20
2006,07,24,09,48,23.30
2006,07,24,09,49,23.30
2006,07,24,09,50,23.30
2006,07,24,09,51,23.30
2006,07,24,09,52,23.30
2006,07,24,09,53,23.30
2006,07,24,09,54,23.30
2006,07,24,09,55,23.30
2006,07,24,09,56,23.30
2006,07,24,09,57,23.30
2006,07,24,09,58,23.30
2006,07,24,09,59,23.30
2006,07,24,10,00,23.30
2006,07,24,10,01,23.30
2006,07,24,10,02,23.30
2006,07,24,10,03,23.30
2006,07,24,10,04,23.40
2006,07,24,10,05,23.40
2006,07,24,10,06,23.30
2006,07,24,10,07,23.30
2006,07,24,10,08,23.30
2006,07,24,10,09,23.50
2006,07,24,10,10,23.60
2006,07,24,10,11,23.60
2006,07,24,10,12,23.50
2006,07,24,10,13,23.40
2006,07,24,10,14,23.30
2006,07,24,10,15,23.40
2006,07,24,10,16,23.40
2006,07,24,10,17,23.30
2006,07,24,10,18,23.30
2006,07,24,10,19,23.30
2006,07,24,10,20,23.40
2006,07,24,10,21,23.50
2006,07,24,10,22,23.70
2006,07,24,10,23,23.70
2006,07,24,10,24,23.70
2006,07,24,10,25,23.70
2006,07,24,10,26,23.60
2006,07,24,10,27,23.60
2006,07,24,10,28,23.60
2006,07,24,10,29,23.60
2006,07,24,10,30,23.70
2006,07,24,10,31,23.60
2006,07,24,10,32,23.50
2006,07,24,10,33,23.40
2006,07,24,10,34,23.60
2006,07,24,10,35,23.60
2006,07,24,10,36,23.50
2006,07,24,10,37,23.40
2006,07,24,10,38,23.50
2006,07,24,10,39,23.70
2006,07,24,10,40,23.70
2006,07,24,10,41,23.70
2006,07,24,10,42,23.80
2006,07,24,10,43,23.90
2006,07,24,10,44,23.90
2006,07,24,10,45,23.90
2006,07,24,10,46,24.00
2006,07,24,10,47,24.10
2006,07,24,10,48,24.10
2006,07,24,10,49,24.10
2006,07,24,10,50,24.10
2006,07,24,10,51,24.00
2006,07,24,10,52,23.90
2006,07,24,10,53,23.90
2006,07,24,10,54,23.80
2006,07,24,10,55,23.80
2006,07,24,10,56,23.80
2006,07,24,10,57,23.80
2006,07,24,10,58,23.80
2006,07,24,10,59,23.70
2006,07,24,11,00,23.70
2006,07,24,11,01,23.70
2006,07,24,11,02,23.90
2006,07,24,11,03,24.00
2006,07,24,11,04,24.10
2006,07,24,11,05,24.20
2006,07,24,11,06,24.20
2006,07,24,11,07,24.20
2006,07,24,11,08,24.10
2006,07,24,11,09,24.10
2006,07,24,11,10,24.10
2006,07,24,11,11,24.20
2006,07,24,11,12,24.30
2006,07,24,11,13,24.20
2006,07,24,11,14,24.20
2006,07,24,11,15,24.20
2006,07,24,11,16,24.20
2006,07,24,11,17,24.20
2006,07,24,11,18,24.30
2006,07,24,11,19,24.40
2006,07,24,11,20,24.40
2006,07,24,11,21,24.40
2006,07,24,11,22,24.30
2006,07,24,11,23,24.20
2006,07,24,11,24,24.20
2006,07,24,11,25,24.30
2006,07,24,11,26,24.40
2006,07,24,11,27,24.40
2006,07,24,11,28,24.50
2006,07,24,11,29,24.40
2006,07,24,11,30,24.40
2006,07,24,11,31,24.40
2006,07,24,11,32,24.40
2006,07,24,11,33,24.20
2006,07,24,11,34,24.10
2006,07,24,11,35,24.10
2006,07,24,11,36,24.10
2006,07,24,11,37,24.10
2006,07,24,11,38,24.00
2006,07,24,11,39,23.90
2006,07,24,11,40,23.90
2006,07,24,11,41,23.90
2006,07,24,11,42,23.80
2006,07,24,11,43,23.50
2006,07,24,11,44,23.30
2006,07,24,11,45,23.20
2006,07,24,11,46,23.10
2006,07,24,11,47,23.00
2006,07,24,11,48,22.90
2006,07,24,11,49,22.90
2006,07,24,11,50,22.80
2006,07,24,11,51,22.70
2006,07,24,11,52,22.70
2006,07,24,11,53,22.70
2006,07,24,11,54,22.60
2006,07,24,11,55,22.60
2006,07,24,11,56,22.70
2006,07,24,11,57,22.70
2006,07,24,11,58,22.90
2006,07,24,11,59,22.90
2006,07,24,12,00,22.90
2006,07,24,12,01,22.90
2006,07,24,12,02,22.90
2006,07,24,12,03,22.90
2006,07,24,12,04,22.80
2006,07,24,12,05,22.70
2006,07,24,12,06,22.70
2006,07,24,12,07,22.80
2006,07,24,12,08,22.80
2006,07,24,12,09,22.80
2006,07,24,12,10,22.70
2006,07,24,12,11,22.60
2006,07,24,12,12,22.60
2006,07,24,12,13,22.60
2006,07,24,12,14,22.70
2006,07,24,12,15,22.80
2006,07,24,12,16,22.90
2006,07,24,12,17,23.00
2006,07,24,12,18,23.00
2006,07,24,12,19,22.90
2006,07,24,12,20,22.90
2006,07,24,12,21,22.90
2006,07,24,12,22,22.90
2006,07,24,12,23,22.90
2006,07,24,12,24,23.00
2006,07,24,12,25,23.10
2006,07,24,12,26,23.10
2006,07,24,12,27,23.10
2006,07,24,12,28,23.20
2006,07,24,12,29,23.20
2006,07,24,12,30,23.10
2006,07,24,12,31,23.10
2006,07,24,12,32,23.20
2006,07,24,12,33,23.30
2006,07,24,12,34,23.30
2006,07,24,12,35,23.30
2006,07,24,12,36,23.40
2006,07,24,12,37,23.40
2006,07,24,12,38,23.40
2006,07,24,12,39,23.30
2006,07,24,12,40,23.50
2006,07,24,12,41,23.60
2006,07,24,12,42,23.80
2006,07,24,12,43,23.90
2006,07,24,12,44,24.10
2006,07,24,12,45,24.20
2006,07,24,12,46,24.20
2006,07,24,12,47,24.20
2006,07,24,12,48,24.10
2006,07,24,12,49,23.90
2006,07,24,12,50,24.00
2006,07,24,12,51,23.90
2006,07,24,12,52,23.90
2006,07,24,12,53,23.90
2006,07,24,12,54,23.90
2006,07,24,12,55,23.80
2006,07,24,12,56,23.80
2006,07,24,12,57,23.70
2006,07,24,12,58,23.70
2006,07,24,12,59,23.60
2006,07,24,13,00,23.70
2006,07,24,13,01,23.70
2006,07,24,13,02,23.80
2006,07,24,13,03,23.90
2006,07,24,13,04,23.80
2006,07,24,13,05,23.70
2006,07,24,13,06,23.90
2006,07,24,13,07,24.00
2006,07,24,13,08,24.10
2006,07,24,13,09,24.20
2006,07,24,13,10,24.20
2006,07,24,13,11,24.30
2006,07,24,13,12,24.30
2006,07,24,13,13,24.50
2006,07,24,13,14,24.50
2006,07,24,13,15,24.30
2006,07,24,13,16,24.30
2006,07,24,13,17,24.30
2006,07,24,13,18,24.40
2006,07,24,13,19,24.40
2006,07,24,13,20,24.30
2006,07,24,13,21,24.20
2006,07,24,13,22,24.10
2006,07,24,13,23,24.10
2006,07,24,13,24,24.00
2006,07,24,13,25,23.90
2006,07,24,13,26,24.00
2006,07,24,13,27,24.10
2006,07,24,13,28,24.10
2006,07,24,13,29,24.10
2006,07,24,13,30,24.10
2006,07,24,13,31,24.00
2006,07,24,13,32,23.90
2006,07,24,13,33,24.00
2006,07,24,13,34,24.10
2006,07,24,13,35,24.00
2006,07,24,13,36,23.90
2006,07,24,13,37,24.10
2006,07,24,13,38,24.20
2006,07,24,13,39,24.40
2006,07,24,13,40,24.40
2006,07,24,13,41,24.40
2006,07,24,13,42,24.40
2006,07,24,13,43,24.40
2006,07,24,13,44,24.40
2006,07,24,13,45,24.40
2006,07,24,13,46,24.40
2006,07,24,13,47,24.40
2006,07,24,13,48,24.40
2006,07,24,13,49,24.40
2006,07,24,13,50,24.50
2006,07,24,13,51,24.50
2006,07,24,13,52,24.50
2006,07,24,13,53,24.60
2006,07,24,13,54,24.80
2006,07,24,13,55,24.90
2006,07,24,13,56,24.90
2006,07,24,13,57,25.00
2006,07,24,13,58,25.00
2006,07,24,13,59,25.00
2006,07,24,14,00,25.00
2006,07,24,14,01,24.90
2006,07,24,14,02,24.90
2006,07,24,14,03,24.90
2006,07,24,14,04,24.90
2006,07,24,14,05,24.90
2006,07,24,14,06,24.90
2006,07,24,14,07,25.00
2006,07,24,14,08,25.00
2006,07,24,14,09,25.00
2006,07,24,14,10,25.00
2006,07,24,14,11,24.90
2006,07,24,14,12,25.00
2006,07,24,14,13,25.10
2006,07,24,14,14,25.10
2006,07,24,14,15,25.10
2006,07,24,14,16,25.20
2006,07,24,14,17,25.30
2006,07,24,14,18,25.20
2006,07,24,14,19,25.30
2006,07,24,14,20,25.40
2006,07,24,14,21,25.60
2006,07,24,14,22,25.60
2006,07,24,14,23,25.60
2006,07,24,14,24,25.60
2006,07,24,14,25,25.50
2006,07,24,14,26,25.50
2006,07,24,14,27,25.40
2006,07,24,14,28,25.50
2006,07,24,14,29,25.50
2006,07,24,14,30,25.50
2006,07,24,14,31,25.60
2006,07,24,14,32,25.50
2006,07,24,14,33,25.40
2006,07,24,14,34,25.20
2006,07,24,14,35,25.10
2006,07,24,14,36,25.00
2006,07,24,14,37,25.10
2006,07,24,14,38,25.20
2006,07,24,14,39,25.20
2006,07,24,14,40,25.10
2006,07,24,14,41,25.00
2006,07,24,14,42,25.00
2006,07,24,14,43,24.90
2006,07,24,14,44,24.80
2006,07,24,14,45,24.70
2006,07,24,14,46,24.70
2006,07,24,14,47,24.70
2006,07,24,14,48,24.70
2006,07,24,14,49,24.80
2006,07,24,14,50,24.80
2006,07,24,14,51,24.80
2006,07,24,14,52,24.80
2006,07,24,14,53,24.90
2006,07,24,14,54,24.90
2006,07,24,14,55,25.10
2006,07,24,14,56,25.00
2006,07,24,14,57,25.00
2006,07,24,14,58,25.10
2006,07,24,14,59,25.20
2006,07,24,15,00,25.20
2006,07,24,15,01,25.10
2006,07,24,15,02,25.10
2006,07,24,15,03,25.10
2006,07,24,15,04,25.10
2006,07,24,15,05,25.10
2006,07,24,15,06,25.10
2006,07,24,15,07,25.20
2006,07,24,15,08,25.20
2006,07,24,15,09,25.10
2006,07,24,15,10,25.20
2006,07,24,15,11,25.30
2006,07,24,15,12,25.50
2006,07,24,15,13,25.60
2006,07,24,15,14,25.60
2006,07,24,15,15,25.60
2006,07,24,15,16,25.60
2006,07,24,15,17,25.60
2006,07,24,15,18,25.70
2006,07,24,15,19,25.70
2006,07,24,15,20,25.70
2006,07,24,15,21,25.70
2006,07,24,15,22,25.80
2006,07,24,15,23,25.90
2006,07,24,15,24,26.00
2006,07,24,15,25,26.00
2006,07,24,15,26,26.00
2006,07,24,15,27,26.00
2006,07,24,15,28,26.10
2006,07,24,15,29,26.20
2006,07,24,15,30,26.20
2006,07,24,15,31,26.00
2006,07,24,15,32,26.00
2006,07,24,15,33,26.00
2006,07,24,15,34,26.10
2006,07,24,15,35,26.20
2006,07,24,15,36,26.20
2006,07,24,15,37,26.20
2006,07,24,15,38,26.20
2006,07,24,15,39,26.20
2006,07,24,15,40,26.10
2006,07,24,15,41,25.90
2006,07,24,15,42,25.90
2006,07,24,15,43,25.90
2006,07,24,15,44,25.90
2006,07,24,15,45,26.00
2006,07,24,15,46,25.90
2006,07,24,15,47,25.90
2006,07,24,15,48,25.90
2006,07,24,15,49,25.90
2006,07,24,15,50,25.80
2006,07,24,15,51,25.80
2006,07,24,15,52,25.70
2006,07,24,15,53,25.70
2006,07,24,15,54,25.70
2006,07,24,15,55,25.70
2006,07,24,15,56,25.60
2006,07,24,15,57,25.60
2006,07,24,15,58,25.50
2006,07,24,15,59,25.50
2006,07,24,16,00,25.50
2006,07,24,16,01,25.50
2006,07,24,16,02,25.60
2006,07,24,16,03,25.70
2006,07,24,16,04,25.80
2006,07,24,16,05,25.80
2006,07,24,16,06,25.90
2006,07,24,16,07,26.00
2006,07,24,16,08,26.10
2006,07,24,16,09,26.00
2006,07,24,16,10,25.90
2006,07,24,16,11,25.80
2006,07,24,16,12,25.80
2006,07,24,16,13,25.90
2006,07,24,16,14,25.80
2006,07,24,16,15,25.70
2006,07,24,16,16,25.70
2006,07,24,16,17,25.70
2006,07,24,16,18,25.70
2006,07,24,16,19,25.70
2006,07,24,16,20,25.90
2006,07,24,16,21,25.90
2006,07,24,16,22,25.90
2006,07,24,16,23,25.80
2006,07,24,16,24,25.70
2006,07,24,16,25,25.60
2006,07,24,16,26,25.70
2006,07,24,16,27,25.70
2006,07,24,16,28,25.70
2006,07,24,16,29,25.70
2006,07,24,16,30,25.80
2006,07,24,16,31,25.90
2006,07,24,16,32,26.00
2006,07,24,16,33,26.10
2006,07,24,16,34,26.10
2006,07,24,16,35,26.00
2006,07,24,16,36,26.00
2006,07,24,16,37,25.90
2006,07,24,16,38,26.00
2006,07,24,16,39,26.20
2006,07,24,16,40,26.20
2006,07,24,16,41,26.20
2006,07,24,16,42,26.20
2006,07,24,16,43,26.20
2006,07,24,16,44,26.20
2006,07,24,16,45,26.30
2006,07,24,16,46,26.30
2006,07,24,16,47,26.30
2006,07,24,16,48,26.30
2006,07,24,16,49,26.10
2006,07,24,16,50,26.00
2006,07,24,16,51,26.00
2006,07,24,16,52,26.10
2006,07,24,16,53,26.10
2006,07,24,16,54,26.10
2006,07,24,16,55,26.10
2006,07,24,16,56,26.10
2006,07,24,16,57,26.20
2006,07,24,16,58,26.30
2006,07,24,16,59,26.30
2006,07,24,17,00,26.40
2006,07,24,17,01,26.40
2006,07,24,17,02,26.30
2006,07,24,17,03,26.30
2006,07,24,17,04,26.30
2006,07,24,17,05,26.20
2006,07,24,17,06,26.20
2006,07,24,17,07,26.20
2006,07,24,17,08,26.20
2006,07,24,17,09,26.20
2006,07,24,17,10,26.10
2006,07,24,17,11,26.00
2006,07,24,17,12,25.90
2006,07,24,17,13,25.90
2006,07,24,17,14,26.00
2006,07,24,17,15,26.00
2006,07,24,17,16,26.00
2006,07,24,17,17,26.00
2006,07,24,17,18,26.00
2006,07,24,17,19,26.00